Theta_e
333 324 321 321 325 320 319 309 300 297 298 292 291 293 292 299 301 301 301 306 304 308 312 315 316 315 316 310 311 314 313 311 311 303 299 311 337 339 341 346 351 352 353 354 354 354 353 355 355 355 355 354 354 354 354 354 353 353 353 354 354 353 352 353 352 352 352 351 352 352 352 352 351 351 349 350 350 350 349 348 349 348 348 349 349 348 348 349 348 349 349 349 350 350 349 348 346
326 318 317 322 320 317 313 302 294 295 291 290 293 293 295 298 301 298 300 304 304 310 311 315 316 317 317 319 321 321 315 321 315 317 329 338 339 342 347 349 352 351 353 354 353 353 353 354 355 354 354 354 354 353 354 354 353 353 353 353 353 353 353 353 352 352 352 352 352 351 351 351 351 350 350 350 349 349 349 348 347 347 347 347 347 348 347 348 348 348 349 349 349 349 349 347 346
325 317 316 318 315 312 310 303 296 288 291 287 289 294 298 299 299 300 301 302 306 312 314 316 318 319 319 316 312 311 306 329 332 333 332 341 337 342 347 351 353 353 354 354 353 352 352 354 355 355 354 355 354 354 354 354 353 353 353 354 353 352 352 351 352 352 352 352 351 351 351 351 351 351 350 349 349 348 349 349 349 348 348 348 347 348 348 347 348 348 348 348 349 349 348 347 346
316 316 316 312 311 307 302 297 292 291 290 288 288 295 296 298 300 302 304 306 307 312 313 314 314 319 313 308 314 325 324 326 332 334 332 336 337 346 348 352 355 354 354 354 353 352 352 354 355 355 354 354 354 354 353 353 353 353 353 353 353 352 353 352 352 352 352 351 351 351 351 350 350 351 350 349 350 349 348 348 348 348 347 347 347 347 347 347 348 348 348 348 348 348 348 347 346
313 316 317 310 307 305 300 297 292 289 291 289 287 292 299 300 303 302 303 306 311 312 312 314 310 314 317 316 320 317 317 331 334 337 334 339 349 349 350 353 354 353 352 353 353 352 352 355 355 354 354 354 353 353 354 353 353 353 353 353 353 353 352 352 352 352 351 351 350 350 350 350 350 350 349 349 348 347 347 347 347 347 347 346 346 346 346 346 347 348 348 347 346 346 346 346 345
307 311 315 313 308 308 301 296 294 292 294 294 294 296 299 302 304 304 306 309 310 311 313 310 309 311 317 323 324 321 329 324 333 336 338 339 348 350 351 353 353 352 353 354 353 351 352 355 355 354 353 353 353 353 353 353 353 352 352 353 353 352 352 352 351 351 350 350 350 350 351 351 350 350 349 349 348 348 348 347 347 346 346 347 346 346 346 347 346 347 346 345 344 345 346 344 344
307 307 306 309 307 303 295 289 291 291 297 299 297 299 301 303 304 305 306 308 309 310 310 310 318 320 318 325 329 332 339 336 336 337 342 345 349 350 351 352 352 351 353 353 352 351 353 355 355 354 353 353 353 353 353 353 352 352 352 353 352 352 352 352 351 351 351 350 350 350 350 350 350 350 349 348 349 349 349 349 348 347 346 346 346 346 346 345 345 346 345 344 346 347 346 343 343
313 308 304 299 296 299 293 291 292 292 295 301 301 301 304 304 304 304 306 306 307 308 311 314 318 316 314 330 319 332 340 341 341 345 347 348 349 349 350 351 350 351 352 352 352 352 355 355 354 353 353 353 353 353 353 352 352 352 352 353 352 352 352 352 351 351 351 350 350 350 350 350 350 349 349 349 349 348 347 346 346 345 345 345 344 344 345 345 346 345 343 345 346 348 346 344 344
305 303 305 300 296 293 289 292 292 294 296 298 300 304 312 305 303 305 306 306 307 308 309 312 317 314 318 327 325 334 337 343 345 348 347 348 347 348 350 350 349 350 351 352 352 352 352 355 354 353 353 353 353 353 353 352 353 353 353 353 352 352 352 352 351 351 350 350 350 350 350 349 349 349 349 349 348 347 347 347 346 346 346 345 344 344 344 345 344 343 343 345 347 348 346 344 344
302 303 298 296 291 293 287 289 292 293 296 299 301 303 304 305 305 305 306 305 307 307 308 316 320 316 325 323 326 329 331 338 343 343 346 346 346 347 348 348 349 349 350 351 352 352 351 355 354 354 353 353 353 352 352 353 353 353 353 353 352 352 351 351 351 350 350 350 350 350 349 349 349 349 350 348 348 346 345 345 344 344 344 344 343 343 344 344 343 342 343 346 346 346 345 344 343
297 296 298 294 289 290 289 287 290 294 296 300 301 303 304 304 303 303 305 306 308 307 318 322 320 324 325 324 324 334 338 340 340 339 343 343 345 346 347 348 349 349 349 351 352 351 351 351 352 354 353 353 353 352 352 352 353 353 352 352 352 352 351 351 351 350 350 349 349 349 349 349 349 349 349 348 348 347 346 345 346 345 345 344 344 343 343 343 342 342 344 346 346 345 344 343 342
296 294 292 286 287 288 287 290 291 294 297 297 298 301 303 303 303 302 303 305 306 315 316 320 317 328 323 324 323 333 337 335 335 338 340 343 344 346 347 347 348 350 351 351 352 350 350 351 351 353 353 353 352 353 352 353 353 352 352 352 352 352 351 350 350 350 350 349 349 349 349 348 349 349 350 349 348 348 347 346 346 345 345 344 344 344 343 342 342 343 346 346 345 345 344 343 342
294 292 290 290 289 290 290 290 291 298 295 294 296 299 300 299 301 303 305 307 307 315 317 320 328 326 317 322 330 335 333 334 337 338 340 343 344 346 346 346 348 350 351 352 351 350 350 350 350 350 351 352 352 352 352 352 352 352 352 352 352 352 351 350 350 350 350 350 349 349 349 349 349 349 349 349 348 348 347 346 346 345 344 343 343 343 342 342 343 345 346 346 345 344 344 342 342
294 293 293 292 289 288 289 290 290 291 290 295 296 298 298 299 302 305 307 304 308 312 320 328 329 326 323 327 329 330 332 335 337 340 342 343 344 345 346 347 348 349 351 351 350 350 349 349 349 349 349 349 348 350 352 352 353 352 352 352 352 352 351 351 350 350 349 350 349 349 349 349 349 349 349 349 348 348 347 346 346 345 345 344 343 342 342 342 343 345 346 345 344 343 343 342 342
301 293 289 288 286 288 290 291 292 290 291 294 298 296 306 313 305 305 307 309 313 322 329 332 329 320 316 320 321 330 332 334 338 340 340 342 343 344 346 347 347 349 350 350 350 349 348 348 348 348 348 347 347 346 347 350 353 352 352 352 352 352 351 351 350 350 349 350 350 350 350 350 350 350 349 349 349 348 347 346 345 345 344 342 342 342 343 343 343 344 345 344 343 343 342 342 342
296 291 289 288 287 288 290 291 291 290 291 294 297 296 308 312 320 311 316 314 316 324 326 323 325 316 322 321 325 334 333 335 338 338 339 339 340 341 342 345 347 348 349 349 349 349 348 347 346 346 346 345 344 345 346 347 351 352 352 352 352 352 351 351 350 350 350 350 350 349 349 349 348 349 350 348 349 349 347 345 346 344 342 341 342 343 344 344 344 344 344 343 343 343 342 342 341
293 291 288 283 288 288 290 291 290 287 293 293 296 296 304 304 308 319 326 324 322 322 326 328 326 331 327 330 334 335 335 339 338 336 336 335 337 336 338 341 344 345 347 347 347 347 347 347 346 345 346 345 344 344 345 346 349 351 351 352 352 352 352 351 350 350 350 349 349 350 349 346 345 345 346 346 349 348 347 346 344 342 341 341 343 344 343 343 343 343 341 342 344 342 342 342 341
293 290 284 286 285 289 291 292 292 296 293 294 294 294 296 298 296 304 323 322 324 325 325 328 331 329 331 332 334 335 336 337 335 334 333 332 334 334 335 337 340 341 343 344 346 347 347 346 346 344 345 346 345 345 347 347 348 349 347 348 348 349 351 351 348 347 350 347 349 347 345 347 343 344 345 348 347 348 346 346 343 342 342 342 343 343 343 342 343 342 342 342 342 341 341 337 340
289 287 285 285 286 290 294 294 295 293 292 294 294 294 295 295 297 304 316 315 318 321 324 327 326 329 332 332 332 334 335 335 333 332 330 330 331 332 333 335 338 340 341 343 344 346 346 346 346 345 346 346 346 346 346 346 347 347 346 346 347 350 350 348 347 348 344 345 345 345 345 344 344 345 345 347 348 348 346 344 342 342 342 342 342 342 342 342 342 342 341 341 340 339 333 332 333
291 288 286 286 290 292 294 295 295 294 295 295 293 294 295 294 297 306 315 316 319 318 320 324 325 325 327 329 331 333 334 333 332 331 330 330 331 331 332 333 335 338 340 342 343 344 345 345 346 345 345 346 345 343 344 343 344 345 345 344 345 344 344 345 344 344 344 344 344 343 343 344 343 343 349 349 348 343 344 343 342 341 341 342 344 342 342 340 341 342 340 337 335 334 332 331 329
292 289 285 289 290 293 294 294 295 294 294 294 292 295 295 295 296 313 316 312 312 316 324 324 324 326 327 328 330 331 332 332 330 329 328 329 330 330 331 331 332 335 339 341 343 341 343 343 344 344 346 346 344 343 344 344 345 344 344 343 342 341 342 342 343 342 343 343 343 343 343 343 342 342 342 341 339 339 339 337 336 335 335 336 339 332 332 333 332 330 331 333 332 333 330 328 326
292 290 290 290 292 293 295 295 294 294 293 291 291 295 295 295 303 308 303 305 306 316 324 327 328 329 328 327 329 330 331 330 330 328 327 327 327 328 329 331 332 335 339 335 336 339 342 344 344 345 344 344 343 344 344 345 344 342 342 342 342 341 341 340 341 342 342 342 342 343 343 341 341 341 341 340 339 337 337 337 336 335 334 334 335 331 332 332 331 331 332 332 332 334 332 329 330
291 289 290 290 291 294 295 294 294 293 293 292 293 294 293 293 294 294 298 301 304 317 330 330 331 331 330 330 329 327 328 327 326 325 326 326 326 327 329 330 331 331 333 332 334 336 337 338 340 344 343 342 342 344 345 345 343 342 342 343 341 339 338 339 340 341 341 342 342 343 341 340 340 340 341 341 340 337 336 337 335 336 334 334 334 332 332 333 333 332 332 332 332 334 332 327 326
291 290 289 293 291 294 293 294 293 291 292 295 293 293 293 295 295 295 309 314 320 330 331 332 332 332 331 328 328 327 326 326 323 323 325 325 325 326 328 329 330 331 331 331 333 334 335 336 340 341 342 341 341 344 344 343 343 341 342 344 341 341 338 337 338 341 341 342 342 342 342 341 340 340 341 341 341 338 338 337 335 336 336 335 336 334 332 332 333 333 333 332 333 333 334 329 326
291 290 290 292 292 292 292 291 290 291 290 292 292 292 292 292 294 299 304 313 325 330 332 332 332 332 331 330 330 328 325 323 323 324 325 325 325 325 326 329 330 330 329 331 332 333 335 337 338 340 340 339 340 343 342 341 342 341 342 341 340 343 338 337 337 339 340 341 342 342 342 339 339 339 340 341 341 340 338 337 335 335 336 336 335 335 334 333 333 333 333 333 333 332 333 330 326
291 291 291 293 292 292 291 292 290 290 292 293 293 289 290 292 298 299 297 315 321 326 329 329 329 326 323 323 323 324 323 323 324 324 324 325 324 324 325 328 329 328 329 331 332 333 335 337 337 338 338 338 339 340 342 341 341 341 341 340 340 341 338 338 338 337 338 340 340 341 342 341 339 339 339 340 340 340 340 339 337 335 336 336 336 335 335 334 333 333 333 333 333 333 334 335 328
290 291 291 292 291 291 292 291 291 290 292 291 293 289 292 290 297 295 309 316 321 321 322 325 324 322 322 322 322 323 323 323 324 324 323 324 322 322 324 326 327 329 331 331 332 333 336 335 335 337 338 341 337 339 341 340 340 339 340 339 339 339 338 339 338 336 336 338 339 340 341 342 340 339 339 339 340 340 340 339 338 337 336 337 337 336 336 335 334 334 333 333 333 333 334 336 327
291 291 290 290 287 291 290 289 289 291 294 289 291 289 288 291 297 298 310 317 320 318 319 320 321 321 321 322 321 322 323 323 322 321 320 321 322 323 323 326 327 329 330 331 332 333 333 334 334 335 337 338 338 339 341 339 339 339 339 338 337 337 338 336 334 335 338 336 338 338 340 341 342 339 339 338 339 339 339 339 338 337 338 337 338 337 337 338 336 335 335 335 334 335 335 333 329
290 291 289 288 287 292 291 290 291 291 293 290 287 290 287 288 295 305 314 317 318 317 316 317 317 317 318 319 320 321 321 320 321 322 323 324 325 326 324 326 328 328 330 331 331 333 333 333 333 334 336 336 335 337 338 338 339 339 339 338 337 337 336 335 334 334 335 335 337 337 339 340 341 339 339 339 339 338 338 338 337 337 337 337 338 338 338 337 338 337 336 337 335 335 334 331 329
291 288 286 287 282 286 291 289 289 291 292 289 291 283 279 288 296 312 315 316 316 315 315 316 315 316 317 319 320 321 322 322 323 323 323 324 325 326 325 325 330 330 331 332 331 331 333 333 334 334 335 334 334 334 335 335 337 338 339 338 338 337 335 334 335 333 335 335 337 337 338 339 340 339 339 338 338 336 336 337 336 336 336 337 337 337 337 337 337 336 336 336 338 336 332 331 330
287 287 283 281 284 283 287 288 288 290 291 289 291 284 281 286 306 313 314 315 315 313 315 315 316 317 318 320 322 324 325 327 327 325 325 325 326 326 326 327 329 330 333 331 330 330 332 331 333 333 335 333 334 333 333 334 335 337 337 336 337 336 335 334 333 333 333 334 336 336 338 339 340 339 340 339 337 336 335 335 335 336 336 336 336 337 337 337 336 335 335 335 333 334 332 332 329
282 283 281 277 282 280 283 289 289 290 291 290 289 281 284 290 305 313 314 313 315 313 314 315 316 317 319 322 323 324 325 327 328 328 328 327 328 327 327 327 330 331 331 332 332 332 331 331 333 332 333 332 332 332 332 333 334 334 335 338 335 335 335 334 333 333 333 333 336 336 337 339 340 339 340 339 337 336 335 335 335 336 336 337 336 336 337 336 335 334 335 335 332 330 331 331 331
281 282 279 283 281 279 285 290 288 287 290 288 291 283 294 299 307 313 315 313 314 313 314 315 317 320 321 321 321 321 324 326 327 329 330 331 331 330 329 327 328 329 331 331 330 329 330 331 333 331 331 331 330 331 331 331 332 332 333 335 334 334 334 333 333 332 333 333 334 336 337 339 340 339 340 340 339 337 336 336 336 336 337 336 336 336 337 337 335 336 333 336 332 330 330 330 331
278 281 284 282 284 281 282 283 287 287 289 289 291 290 292 299 309 311 315 314 313 313 314 316 319 320 319 318 318 320 321 323 324 326 328 331 331 331 331 331 327 326 328 328 327 328 329 329 329 330 330 331 331 330 330 330 331 332 332 332 335 332 333 332 331 331 332 332 334 335 337 338 341 339 339 340 339 339 338 337 337 337 337 336 336 335 336 336 335 335 333 333 333 331 330 330 331
281 282 280 282 282 282 283 283 288 289 289 290 290 292 298 305 308 309 313 315 312 313 315 317 318 316 314 317 318 318 319 320 322 324 326 328 330 331 331 331 328 325 327 328 329 329 329 329 329 329 329 329 330 330 330 330 330 331 331 331 332 331 332 332 332 331 332 332 333 335 337 338 341 339 339 340 338 339 339 338 337 337 337 336 335 335 334 335 335 334 333 332 335 333 332 331 332
285 284 283 282 283 281 282 284 286 290 288 288 292 293 300 305 304 307 311 311 310 313 315 316 313 313 315 316 316 317 318 319 321 322 323 325 327 328 330 330 328 328 329 329 330 329 327 326 327 328 329 329 329 329 330 329 329 330 329 329 330 331 331 333 332 332 331 332 334 335 337 337 339 339 339 339 339 339 338 337 337 337 337 336 334 333 333 333 334 333 332 332 332 333 336 332 332
288 286 285 284 283 283 285 285 287 288 290 287 290 298 303 302 302 304 307 309 310 310 311 310 311 313 315 315 315 316 317 318 320 319 318 319 322 324 325 327 328 329 329 328 328 328 328 327 327 326 328 328 329 328 328 328 327 327 327 328 328 329 330 330 332 331 331 332 333 335 337 337 337 339 339 339 338 340 339 337 337 336 336 336 335 334 334 334 334 333 333 334 332 330 330 330 331
287 284 285 283 283 285 289 287 289 289 288 285 296 299 298 298 301 304 308 309 309 309 309 307 309 311 314 314 314 315 317 316 315 314 314 315 317 318 321 322 326 325 327 328 327 328 328 328 327 327 328 328 329 328 328 328 327 328 328 328 329 330 330 330 329 330 331 333 333 334 336 337 337 338 339 338 339 338 337 336 335 335 334 335 335 336 334 337 334 332 331 329 330 331 329 328 330
285 287 284 283 285 286 287 290 289 291 291 286 298 297 294 296 298 302 305 305 305 307 308 308 307 310 312 314 314 314 314 313 312 311 312 313 314 318 320 321 323 326 328 327 327 327 327 327 327 327 328 329 329 329 328 328 328 330 330 329 330 330 332 333 332 333 335 334 334 334 336 337 337 337 338 339 338 337 337 336 334 334 334 336 335 333 334 333 331 331 329 329 326 326 329 329 330
285 284 283 286 287 285 284 289 290 291 288 292 294 294 292 293 298 299 301 304 304 305 307 305 306 309 310 312 312 310 308 308 309 309 310 310 313 316 319 320 321 325 325 325 327 325 324 326 325 326 327 328 329 330 332 331 331 331 331 331 331 331 331 335 333 333 332 332 332 334 336 336 337 337 337 338 338 337 336 335 334 333 333 335 335 333 331 331 330 329 329 330 328 326 324 325 331
287 285 285 285 288 288 287 289 293 296 297 298 296 293 292 290 294 298 300 301 305 303 305 305 305 305 307 307 308 308 308 307 308 310 310 310 312 313 315 319 319 320 318 317 322 324 325 324 325 326 327 327 329 331 332 333 333 333 331 330 332 331 331 331 330 329 330 332 332 331 334 336 336 336 336 337 338 336 335 335 333 332 332 333 334 333 331 331 331 330 330 329 328 327 324 323 326
284 288 290 290 289 287 288 289 289 286 289 293 295 283 284 288 288 291 294 297 302 301 302 302 303 305 305 305 305 307 308 308 309 310 310 311 310 311 312 313 316 317 318 318 319 321 321 323 324 327 328 330 330 330 331 332 331 331 330 328 326 326 326 326 326 327 328 328 330 332 334 335 335 335 334 335 336 336 334 334 332 332 331 332 333 333 332 330 329 328 328 329 327 326 327 324 324
282 289 291 290 289 288 288 288 287 282 283 292 290 285 280 282 290 293 293 294 296 297 300 302 303 304 305 305 306 307 308 309 309 309 309 310 311 310 310 311 313 314 317 317 317 318 320 322 323 324 327 329 331 332 331 332 330 331 330 329 329 327 326 327 328 329 329 330 331 331 332 333 334 335 334 333 333 335 334 333 332 331 331 331 334 331 329 329 328 328 328 328 328 327 327 325 324
286 291 289 289 288 288 287 287 286 284 289 289 287 286 282 282 290 291 292 294 294 295 298 300 303 303 305 305 306 306 307 308 309 308 309 308 308 307 309 310 310 313 313 315 316 318 320 321 323 327 328 329 330 332 332 332 330 330 330 329 330 329 328 328 327 328 329 331 330 330 331 332 333 334 334 334 333 333 334 332 331 330 330 329 333 330 329 328 328 328 330 328 328 329 327 326 324
288 290 289 290 288 287 288 286 285 284 283 282 281 286 282 282 284 291 294 293 294 295 297 300 301 301 303 304 306 306 307 308 309 307 307 308 308 307 308 309 311 311 313 313 316 316 319 322 326 328 330 331 332 332 332 332 332 331 330 330 329 331 331 330 330 331 329 332 329 330 330 331 332 332 332 333 333 333 335 332 332 331 329 329 334 330 329 327 327 327 329 328 329 329 328 327 326
291 289 289 287 288 288 287 287 285 283 281 278 282 283 280 276 279 289 291 292 294 296 298 299 300 300 302 304 305 306 306 307 308 307 307 307 306 306 307 308 309 310 311 314 315 315 318 320 325 328 327 328 330 331 332 332 332 332 330 330 329 330 331 331 330 329 329 330 329 329 329 330 330 330 330 331 332 333 335 333 332 332 331 330 334 330 329 328 327 327 328 328 328 329 329 331 328
290 289 289 284 284 282 283 281 282 282 279 281 284 285 281 278 282 290 290 292 297 298 296 297 297 298 301 303 305 307 307 307 306 306 306 305 306 306 306 307 307 309 311 312 314 314 316 318 322 325 326 328 331 332 332 331 332 332 331 330 329 329 330 330 327 327 328 326 326 327 329 329 329 330 330 330 331 332 334 335 331 331 332 336 335 330 330 330 329 329 329 329 329 329 330 331 330
290 287 285 283 285 280 279 277 278 276 273 277 281 284 283 279 277 287 295 292 294 299 298 298 297 298 300 303 305 306 306 306 305 305 305 305 306 306 305 307 307 308 310 312 312 313 315 317 318 318 320 322 324 329 330 331 332 331 331 331 330 330 330 329 328 327 327 326 326 326 329 329 329 329 329 329 329 330 332 334 334 331 332 332 333 333 332 331 331 331 331 331 331 330 331 332 331
288 285 283 281 276 275 275 274 275 273 274 280 281 282 280 279 278 286 294 297 293 297 300 300 298 298 301 303 305 305 305 304 304 303 303 304 304 303 304 305 306 307 308 310 312 313 312 314 315 317 318 320 322 326 326 325 327 329 330 330 330 330 330 330 329 328 328 327 327 326 326 327 328 327 327 328 329 329 331 330 332 331 331 331 332 332 333 333 332 331 331 331 332 331 331 332 331
286 285 280 278 273 268 267 266 272 274 278 280 281 283 279 279 284 286 291 297 297 295 296 297 298 299 302 304 304 304 303 303 303 303 302 301 301 303 303 304 305 306 308 310 311 313 312 313 314 317 317 320 323 324 325 325 326 327 328 329 328 328 328 329 328 328 328 328 328 327 326 327 328 328 328 328 330 329 330 331 331 332 333 332 332 332 332 333 333 332 332 331 331 332 332 332 332
287 284 284 281 276 272 267 270 269 270 276 279 282 281 276 281 282 291 291 292 295 296 297 297 299 301 303 303 303 302 302 302 301 301 303 303 303 302 303 303 304 305 308 310 310 312 312 313 314 314 316 319 322 324 325 326 327 328 329 329 327 326 326 327 328 329 329 328 328 327 328 328 327 328 328 330 330 330 330 330 329 330 332 333 333 332 333 332 333 333 333 332 333 332 332 332 332
288 286 287 284 282 278 279 274 275 275 277 276 280 278 280 281 289 292 294 294 295 297 296 298 299 299 301 301 302 302 303 303 302 302 303 303 303 302 303 303 304 305 308 309 310 311 312 313 313 314 315 317 319 322 323 326 327 326 326 326 326 327 327 327 327 327 328 328 329 329 328 328 328 329 329 330 330 330 330 330 331 330 330 333 333 333 333 332 332 332 332 333 332 333 333 332 333
285 287 284 286 286 284 276 276 279 278 274 274 274 281 280 285 288 292 293 294 294 295 295 296 297 299 299 301 301 301 302 301 301 302 302 303 302 302 302 303 304 306 308 308 310 311 313 314 314 313 313 314 317 319 319 320 322 325 325 325 326 327 327 326 325 326 326 327 327 328 329 329 330 330 328 330 330 330 330 330 331 331 331 332 333 333 333 333 332 333 332 332 332 332 333 333 333
286 283 283 288 288 286 282 275 271 270 272 271 278 279 279 280 277 286 292 292 292 293 294 295 296 297 299 300 301 302 302 301 302 302 302 302 302 304 304 305 305 306 306 309 310 311 313 314 314 311 311 313 316 317 318 318 320 322 323 323 323 325 326 326 326 326 327 327 326 327 328 328 329 330 330 331 331 330 329 332 330 331 331 330 331 331 332 332 332 332 332 332 333 332 332 332 332
291 287 290 287 277 281 279 276 270 270 269 267 274 276 278 278 281 282 289 291 292 292 292 293 295 296 298 299 300 300 300 299 300 301 301 301 301 301 302 304 305 306 308 308 310 311 313 314 316 313 311 312 316 317 318 317 319 320 322 323 324 324 324 326 326 327 327 327 327 327 327 328 329 329 330 329 330 330 329 331 329 330 330 330 330 331 331 331 331 331 331 332 331 331 332 331 332
292 291 288 289 282 278 277 277 278 278 269 269 272 276 276 281 282 286 290 293 293 292 292 294 296 297 298 298 299 299 299 299 300 300 300 300 300 301 302 303 304 306 306 307 308 309 311 312 312 313 312 311 313 315 316 315 316 317 318 320 323 326 326 326 327 326 326 326 327 327 327 327 327 329 329 329 328 329 329 329 328 330 330 330 330 331 331 331 330 330 330 330 330 330 331 331 330
286 284 282 286 284 285 284 282 279 278 268 267 266 269 273 280 285 287 291 294 294 294 294 295 296 297 297 298 299 299 299 300 300 300 300 299 299 301 302 303 306 306 307 309 308 309 310 310 310 311 311 311 313 316 316 315 316 316 317 317 320 324 327 327 327 328 327 327 327 328 328 328 329 328 328 328 328 327 328 329 329 330 330 330 330 330 330 330 330 329 327 329 329 329 329 329 328
283 283 281 283 280 281 280 277 282 280 279 274 268 273 278 283 289 289 291 292 295 296 296 296 296 296 297 297 298 299 299 299 299 299 298 299 300 301 302 303 304 304 306 307 307 308 310 309 308 309 309 311 314 316 316 316 316 316 316 317 319 322 325 326 326 327 326 326 326 327 328 328 327 328 328 328 328 328 329 330 330 330 330 330 330 330 329 329 329 329 328 329 328 329 329 327 327
Wind_Speed
4 3 3 2 0 2 1 4 2 2 1 2 2 1 2 1 2 1 1 2 1 1 1 4 8 5 1 3 7 5 4 7 5 6 3 2 1 7 3 8 10 11 12 10 9 9 11 13 16 17 18 17 18 20 19 19 19 19 19 18 17 17 16 17 17 17 17 17 17 16 16 15 15 14 15 14 14 14 14 13 12 12 12 13 14 15 15 16 16 17 17 18 18 18 18 18 18
3 3 2 1 1 0 1 1 3 1 4 1 4 1 3 1 1 3 3 3 2 2 1 3 4 7 8 7 2 2 1 3 5 2 1 1 1 1 3 9 11 13 11 10 9 9 9 10 14 16 17 17 17 18 18 19 19 19 18 18 17 16 16 15 17 17 17 17 16 16 16 15 15 14 14 14 14 13 13 13 13 12 11 12 13 13 14 15 16 16 17 17 17 17 17 18 17
2 4 1 2 2 3 2 4 1 1 3 5 6 6 1 0 2 0 3 5 3 2 6 6 7 6 3 2 1 2 1 1 2 3 1 2 4 2 5 7 9 12 13 8 9 9 8 10 14 16 17 17 18 18 19 19 19 18 18 18 17 17 16 15 16 16 16 15 15 14 15 15 15 14 14 14 14 13 13 13 13 12 11 12 12 12 12 14 15 15 15 15 15 16 15 15 15
1 0 0 2 0 4 1 3 5 7 3 5 3 4 2 2 1 4 8 8 3 4 3 1 2 2 3 2 1 0 1 2 2 5 4 5 1 3 5 7 9 10 10 9 8 8 8 13 17 16 17 17 18 18 19 18 19 19 18 17 18 17 16 15 15 15 14 14 14 14 14 14 14 14 15 14 13 13 12 13 12 12 11 11 11 11 11 13 14 14 14 14 14 14 14 14 14
1 2 1 2 3 1 2 1 3 4 6 5 4 3 3 1 1 5 4 2 5 5 4 4 4 1 1 3 1 1 3 1 5 4 3 1 3 6 8 8 9 10 10 11 10 9 10 18 17 16 17 17 18 18 18 19 19 18 19 18 18 16 15 14 14 14 14 14 13 13 14 14 14 15 15 15 13 12 12 12 11 12 12 11 10 10 11 11 13 13 13 13 12 12 13 13 16
1 1 2 1 0 2 4 1 0 3 5 4 1 1 3 5 1 5 4 4 2 3 2 4 3 1 2 1 1 1 1 1 1 1 4 1 8 9 9 9 10 10 10 10 9 9 10 19 18 18 18 19 19 19 19 19 18 18 19 18 17 16 15 15 14 14 14 13 13 13 14 14 15 15 15 14 13 13 13 12 11 11 11 11 10 10 10 11 11 12 13 12 11 11 12 14 17
1 3 4 3 2 4 4 2 3 3 7 6 2 2 3 1 2 4 3 2 3 2 1 0 6 5 3 1 1 1 5 1 2 1 4 6 9 9 9 9 10 10 10 9 8 8 12 20 19 18 19 19 20 21 20 20 19 19 18 17 17 16 15 15 14 14 14 13 13 13 13 14 15 15 14 14 14 14 13 12 12 11 11 11 10 9 10 12 12 12 13 12 10 10 14 16 16
1 1 1 2 1 1 0 1 2 4 2 5 2 4 2 2 1 1 2 2 2 3 0 0 4 5 3 3 3 3 8 5 5 9 11 8 8 8 7 7 8 9 10 9 8 7 15 20 18 17 17 19 19 19 20 20 19 19 18 17 16 16 15 15 15 14 14 14 14 14 13 13 14 14 14 14 14 14 13 12 11 12 12 11 10 9 10 12 11 12 12 11 10 11 17 17 16
3 5 0 5 1 2 1 2 3 2 5 3 6 7 5 5 5 1 5 2 1 1 1 3 2 5 2 2 2 3 4 7 7 10 10 8 8 7 6 7 11 9 10 9 8 8 10 19 18 18 18 19 18 18 18 19 18 17 17 17 16 15 15 15 15 15 14 14 13 13 13 13 13 14 14 14 14 13 12 12 11 12 12 12 10 9 11 12 11 12 11 11 11 15 18 17 16
2 2 1 2 4 3 1 4 1 2 2 5 6 9 6 7 6 7 8 1 5 2 3 3 1 4 4 3 1 3 3 7 6 9 9 7 6 5 5 5 6 10 9 8 7 6 5 16 19 17 16 16 16 16 17 17 17 17 17 16 15 15 15 15 15 15 14 13 13 13 13 13 12 13 13 13 13 13 12 12 12 12 12 12 12 11 11 10 10 10 10 11 14 17 17 16 16
0 4 2 3 2 2 2 3 2 6 4 4 6 8 11 3 8 7 7 7 5 5 4 6 2 5 5 1 1 1 3 3 4 9 7 7 5 6 5 4 5 6 9 9 7 5 3 5 14 14 14 14 14 15 15 15 16 16 17 17 16 16 16 15 15 14 14 14 13 12 12 12 12 12 12 12 13 12 12 12 13 13 13 13 12 12 11 9 9 9 10 13 16 16 16 16 16
1 1 2 3 1 4 2 1 4 7 6 3 4 5 1 5 3 4 7 6 5 5 7 10 4 6 4 0 2 3 6 8 3 4 6 5 5 4 5 4 4 5 6 7 6 6 5 6 6 11 13 13 13 13 13 14 15 15 16 16 16 16 16 16 15 15 14 15 14 13 12 12 12 12 12 12 12 12 12 12 12 13 13 13 13 12 10 9 9 10 10 14 16 15 15 15 15
3 1 6 4 1 1 2 1 3 3 4 4 4 4 4 5 7 8 9 11 8 7 3 9 9 3 2 1 1 0 4 4 3 5 6 5 5 5 4 4 5 5 6 6 7 6 7 5 5 5 8 13 12 14 13 14 15 14 16 16 15 15 15 15 15 14 13 14 14 13 13 12 11 11 11 12 12 12 12 11 11 12 12 12 12 11 11 10 10 11 13 16 16 15 15 14 14
4 5 5 2 0 2 2 2 0 2 5 4 2 5 4 3 5 8 6 5 6 8 1 6 8 4 4 4 2 3 3 1 1 3 6 6 5 5 5 5 6 6 6 7 7 7 7 6 5 5 6 5 5 9 12 14 14 15 16 16 15 15 15 15 15 14 13 13 14 13 13 12 12 11 10 11 12 12 12 11 11 12 12 12 11 11 11 11 12 14 14 15 15 14 14 14 14
0 2 4 4 1 0 1 0 1 1 6 2 6 5 2 3 2 4 10 9 2 2 4 4 1 5 6 9 4 8 7 5 3 5 7 7 6 5 5 4 5 6 7 6 6 7 7 7 6 5 5 4 4 3 4 8 13 14 15 15 14 15 15 15 15 14 14 13 13 13 13 12 11 11 10 11 12 12 11 11 11 11 12 11 11 12 12 12 13 15 15 14 13 13 12 13 13
4 5 3 2 0 2 1 1 1 1 5 3 8 6 3 7 8 3 4 1 4 2 2 3 2 1 2 7 4 11 11 7 4 7 8 8 6 6 6 5 6 6 6 6 7 6 6 6 5 5 5 4 3 3 3 4 9 12 13 14 14 13 14 15 16 15 14 13 13 13 12 9 9 8 10 8 11 11 11 9 11 11 12 11 11 13 13 13 14 15 15 14 13 12 12 13 13
2 4 3 3 1 1 2 1 1 4 6 5 7 7 4 3 1 4 4 4 14 1 4 5 4 3 7 1 9 14 9 7 7 8 8 5 5 4 4 4 5 6 5 6 6 6 6 6 6 5 5 5 4 3 4 3 6 10 10 13 13 13 13 14 15 15 14 12 11 12 11 6 4 4 5 4 9 6 10 11 11 12 12 12 12 13 14 14 14 15 15 14 12 12 12 13 12
2 2 5 2 1 1 4 3 2 0 1 5 8 4 5 5 3 2 5 11 8 8 8 3 9 10 6 5 10 11 11 10 8 10 7 7 6 6 5 4 5 7 6 6 6 6 6 6 6 5 5 6 4 4 3 3 3 5 3 4 5 8 9 10 9 7 8 6 12 9 6 5 4 5 5 6 4 6 7 11 11 12 12 11 12 14 14 13 14 15 15 13 11 10 9 6 6
3 2 3 4 3 4 4 2 3 1 2 3 3 4 4 1 0 1 6 2 3 8 6 5 8 8 10 9 10 11 11 9 8 8 10 10 8 10 7 4 4 6 6 5 5 7 6 5 5 6 6 5 5 4 3 3 5 4 3 3 3 6 5 3 4 6 3 4 6 6 5 5 5 4 4 5 5 8 7 10 12 12 12 11 12 13 13 13 13 14 15 13 10 10 6 5 5
1 4 2 3 6 4 4 4 5 3 1 2 4 4 6 3 1 0 4 6 4 7 8 5 6 7 8 8 10 10 10 9 7 8 8 7 7 5 6 5 4 4 6 3 7 5 6 6 6 5 6 5 4 4 4 5 5 4 3 3 3 3 4 3 3 4 4 4 4 5 5 5 5 4 6 8 6 4 5 9 12 13 12 10 11 7 10 10 10 12 14 11 7 4 5 5 5
1 3 3 4 3 1 4 3 7 4 2 1 1 2 6 5 2 2 6 9 1 2 6 7 14 12 10 9 10 10 10 9 6 4 3 7 9 7 6 6 5 5 5 5 8 5 6 6 5 6 5 4 4 4 5 4 4 4 3 3 4 3 3 3 3 4 5 4 4 4 5 5 4 5 5 4 4 5 5 4 5 5 5 5 6 6 5 5 5 6 6 6 5 5 6 6 5
3 4 5 4 1 1 9 8 5 2 3 2 1 7 0 1 5 4 3 4 5 3 6 3 9 12 12 12 10 9 10 8 4 5 9 7 8 7 6 6 6 5 5 6 6 5 6 6 6 6 6 4 4 4 4 5 5 4 3 3 4 3 3 3 3 4 5 4 4 4 5 5 5 5 5 4 4 4 4 4 4 4 5 4 3 5 5 5 5 4 5 6 5 5 5 5 4
2 2 2 4 3 2 2 3 3 1 0 2 2 0 1 3 3 1 3 2 4 1 6 5 5 9 8 9 9 7 6 4 7 8 7 8 7 7 7 6 6 6 5 6 6 5 5 6 4 7 6 4 4 5 5 5 4 4 2 2 4 3 3 2 2 4 4 4 4 4 5 4 5 5 5 4 3 3 3 3 3 4 5 4 2 4 5 4 4 4 4 5 5 5 5 5 5
2 3 0 2 5 5 6 5 4 0 5 1 1 1 3 5 5 1 4 4 2 8 9 9 9 9 9 7 3 4 6 7 8 9 8 7 8 7 6 7 6 5 6 6 6 4 5 3 3 7 6 5 4 5 5 4 4 4 3 3 3 4 4 1 1 3 4 5 4 4 5 4 5 6 5 5 3 2 2 2 3 3 3 3 2 4 4 4 4 4 4 4 5 4 5 5 5
3 2 2 2 2 6 5 3 3 1 3 0 4 4 0 1 4 3 4 4 3 9 10 11 10 10 8 5 5 6 7 7 7 6 7 5 7 7 7 6 6 6 6 6 5 5 5 2 7 6 7 5 5 6 6 4 5 4 4 3 2 3 3 2 1 2 4 4 4 5 5 5 4 5 6 5 4 2 1 1 2 2 2 2 3 3 4 4 3 3 3 3 3 4 4 4 5
3 5 2 0 3 3 2 1 2 4 1 0 3 5 2 1 2 7 2 3 4 10 11 10 9 9 8 7 7 7 7 5 4 5 5 4 5 9 7 7 7 7 6 5 6 4 5 4 6 6 7 6 6 7 6 5 5 5 4 5 3 3 3 2 1 2 2 3 3 4 5 5 5 6 6 5 5 4 2 1 1 1 1 1 2 3 3 3 2 3 3 3 3 3 3 3 4
3 3 3 2 3 1 0 3 4 3 2 1 1 5 1 5 5 1 1 1 6 12 10 9 10 8 7 6 6 5 6 4 4 4 5 5 5 7 6 7 8 8 8 7 6 6 6 6 5 6 8 6 6 7 6 6 6 6 5 5 5 4 4 3 2 1 2 2 3 3 4 4 5 5 6 6 5 5 4 3 2 2 2 2 2 2 2 2 1 1 2 2 2 2 2 3 4
2 3 3 2 5 1 1 1 5 1 1 0 4 3 1 6 2 4 4 1 6 11 10 9 8 7 6 7 6 4 5 3 4 5 6 5 3 4 5 7 8 9 9 9 8 8 7 8 7 7 8 7 7 8 7 7 6 6 6 5 5 5 6 5 4 3 3 3 2 3 4 4 5 5 6 6 6 6 5 4 4 3 3 2 2 2 2 2 2 2 2 3 3 1 2 3 4
2 5 3 3 4 1 0 3 2 1 1 2 2 5 4 5 2 1 2 4 9 10 9 8 7 5 6 5 5 4 4 3 3 6 7 5 4 4 5 4 7 7 5 9 9 9 10 10 9 8 8 6 7 8 8 6 5 4 5 5 5 6 5 5 5 5 5 4 3 4 4 5 5 6 5 6 6 5 5 5 5 5 4 3 3 3 3 2 2 3 3 2 2 1 2 2 3
2 6 1 2 3 2 1 3 3 1 1 2 3 4 1 2 1 0 2 8 10 11 7 6 5 5 4 4 5 5 4 4 5 5 4 3 3 5 6 5 6 7 6 6 7 8 7 5 5 5 6 6 5 5 6 6 6 5 4 4 3 4 4 5 5 5 5 4 4 4 4 4 5 5 6 5 5 5 5 5 5 5 4 4 4 4 4 3 3 3 3 2 3 2 3 3 4
3 1 6 1 1 3 2 0 3 2 2 1 2 3 1 3 0 1 3 5 11 9 6 5 5 5 5 4 5 6 8 8 7 6 6 5 4 4 5 4 5 5 5 5 7 6 4 3 3 5 6 6 6 6 6 7 8 8 7 6 5 6 5 5 5 5 5 5 4 4 4 4 5 6 6 6 5 5 5 5 5 5 4 4 4 4 4 3 4 4 3 3 3 3 3 4 4
3 3 1 3 1 3 7 4 3 7 1 3 7 1 3 3 2 1 2 1 9 10 7 6 6 5 5 5 7 7 6 5 6 6 5 5 4 4 5 4 4 4 5 6 5 6 5 4 5 7 6 8 8 7 7 8 7 5 5 7 7 7 7 6 6 6 6 5 5 5 5 5 5 6 6 6 6 5 5 6 6 4 5 4 4 4 3 4 4 4 3 3 3 2 3 4 4
5 4 1 1 0 4 5 1 3 5 3 3 2 4 1 1 3 1 0 3 6 10 7 6 7 7 6 6 5 5 6 7 6 6 5 3 2 3 5 6 6 5 4 4 4 4 5 6 6 8 9 8 7 6 7 6 5 7 6 7 9 8 7 6 5 5 6 6 5 5 6 6 5 6 6 6 6 6 5 5 5 5 4 5 4 4 4 4 4 4 2 2 4 3 3 4 4
2 2 1 2 1 1 2 5 4 1 2 2 3 7 4 3 5 2 1 3 7 8 7 6 6 7 7 6 6 7 7 6 5 4 3 3 2 2 4 5 2 2 1 3 3 4 6 5 5 6 7 7 7 7 6 4 4 4 6 6 5 7 7 6 5 5 5 6 5 5 6 6 6 6 6 6 6 6 6 6 5 5 5 5 4 4 5 4 4 4 1 1 4 3 3 4 4
1 1 2 3 1 2 6 0 1 2 2 8 5 6 4 4 4 1 2 1 4 5 7 8 8 7 5 5 7 7 6 6 4 4 4 3 3 3 2 2 1 1 1 2 2 1 1 1 2 2 3 4 6 7 6 5 4 4 2 1 2 4 4 6 6 5 5 5 6 6 6 6 6 7 7 7 6 5 5 5 5 5 5 5 5 4 4 4 3 3 3 1 1 3 4 4 5
3 3 2 2 2 3 2 5 4 6 4 6 8 8 6 6 2 3 3 3 4 2 2 5 5 5 5 6 6 5 5 5 3 4 5 4 3 4 3 3 4 5 5 4 2 2 1 1 1 2 0 1 1 3 4 5 4 4 5 2 2 3 4 3 5 8 7 6 6 7 7 6 6 7 7 7 7 6 6 5 5 5 5 5 5 5 5 4 5 5 4 4 3 1 2 3 3
2 3 2 3 4 6 4 3 5 3 5 2 3 8 9 5 3 3 2 3 4 3 0 2 4 5 7 6 6 6 7 6 2 3 3 4 5 5 4 4 4 5 4 4 3 2 1 1 0 2 0 1 3 4 4 5 5 4 2 4 5 5 5 5 4 3 4 5 6 7 7 7 7 7 7 7 7 6 6 5 5 5 5 5 5 6 6 7 6 5 3 3 4 2 2 2 2
2 4 1 2 3 1 2 2 1 3 4 2 6 10 6 3 3 3 3 4 1 1 2 2 1 3 6 7 8 7 4 1 2 3 3 3 4 4 4 4 4 4 4 3 3 2 2 2 3 3 2 3 4 4 3 3 2 3 3 5 4 5 5 6 6 3 3 3 5 6 6 7 7 7 7 7 7 7 6 6 6 6 5 5 6 5 5 5 4 4 4 2 0 4 4 4 5
3 1 1 1 2 2 3 4 3 1 8 2 8 11 4 3 3 4 4 2 1 1 1 1 3 0 4 6 7 6 4 3 1 1 1 2 3 4 4 4 3 2 3 1 3 1 1 2 3 3 3 4 4 4 4 4 3 2 1 1 4 3 2 2 4 3 2 2 2 5 6 6 7 7 7 7 7 7 7 7 7 6 6 5 5 5 5 5 5 6 6 5 3 2 1 1 5
5 5 3 1 4 3 3 7 4 6 4 8 5 11 3 3 3 4 3 2 0 1 1 1 1 1 1 5 4 3 3 3 2 1 2 3 3 2 4 4 3 2 1 1 2 1 2 3 3 4 3 4 4 5 6 4 3 2 1 0 2 3 3 3 2 2 2 1 2 2 4 5 6 7 7 7 7 7 8 8 6 6 6 6 6 6 5 6 5 5 5 4 3 1 1 1 0
2 4 2 0 3 2 2 0 5 11 10 11 11 8 3 5 2 1 2 2 2 1 1 0 1 1 0 0 1 0 1 2 2 1 2 3 4 3 3 3 3 2 2 2 2 0 2 3 3 4 4 5 5 5 5 4 4 4 3 0 1 1 1 3 3 4 4 4 2 1 5 5 6 6 7 8 8 8 7 7 7 7 6 6 6 6 6 7 7 7 6 5 4 4 2 0 1
3 2 0 1 1 3 3 0 5 4 3 2 6 5 2 4 3 3 4 2 2 1 1 3 1 1 1 1 0 1 1 2 1 2 1 1 2 3 3 3 3 3 3 2 2 3 3 3 2 4 4 4 5 6 6 5 5 5 5 6 5 4 5 4 7 7 6 6 7 6 3 5 6 6 6 6 7 7 8 8 7 7 6 6 6 6 6 5 6 6 6 6 5 4 3 4 2
3 1 1 1 2 2 5 5 6 2 5 6 1 6 3 2 4 3 1 1 3 2 1 4 3 2 1 1 1 1 1 1 1 1 0 1 1 2 2 3 3 3 3 2 3 3 3 3 3 3 3 4 4 5 6 6 6 6 6 6 6 7 7 4 1 3 5 5 5 6 6 4 4 6 5 5 4 6 7 7 7 7 7 6 6 6 6 7 7 6 4 4 5 5 4 3 5
1 2 1 1 2 4 2 3 4 4 0 1 4 3 5 2 8 4 3 1 4 4 5 5 5 3 2 1 1 2 2 2 2 2 0 1 1 1 2 4 3 4 4 3 3 3 3 3 3 3 3 3 4 5 6 6 6 5 6 7 6 7 7 5 4 4 0 2 5 6 5 5 4 4 6 5 5 3 4 7 7 7 7 6 6 7 7 6 4 3 4 5 5 5 5 5 5
2 1 3 0 2 5 4 6 4 1 5 3 3 2 2 2 4 1 5 4 6 9 8 8 6 3 3 3 3 3 3 3 4 3 1 0 1 2 2 3 4 4 3 3 3 3 3 3 4 4 2 2 3 4 5 6 6 6 6 6 8 6 6 5 4 4 6 6 6 4 4 4 4 3 4 6 6 5 3 4 6 7 6 6 6 6 5 6 6 5 5 5 6 5 5 5 4
1 3 6 5 5 5 3 3 3 3 2 4 4 1 1 3 3 2 0 4 9 11 11 9 6 5 4 4 3 3 3 4 5 2 0 1 2 2 2 3 3 3 4 3 3 3 3 3 4 5 3 1 1 2 4 5 6 6 7 7 8 6 5 5 5 5 6 4 3 3 4 4 5 5 5 3 5 6 5 4 5 7 8 7 6 7 6 6 5 6 6 6 6 6 5 5 6
2 4 2 4 8 4 3 6 4 3 2 6 5 2 3 5 6 10 9 11 15 12 4 4 4 4 5 4 5 5 5 5 4 2 1 2 3 2 2 2 3 4 4 3 4 3 3 3 3 4 4 3 3 4 5 6 5 6 6 5 7 7 5 5 6 5 5 5 5 5 4 5 5 6 5 5 5 6 6 5 6 6 6 6 6 6 6 6 6 6 6 6 6 6 6 6 5
2 1 2 4 1 7 3 3 4 3 4 5 3 1 4 7 4 6 11 3 3 10 13 13 10 9 8 6 5 5 5 5 3 1 1 2 1 2 3 4 4 4 4 6 4 4 3 3 3 3 3 4 5 3 2 3 4 6 6 6 6 6 7 6 7 8 7 8 8 7 3 3 5 4 5 5 6 4 4 5 4 5 6 6 6 6 5 6 6 6 6 6 6 6 6 5 6
5 5 5 2 3 3 2 3 2 3 5 0 1 3 1 8 5 7 13 11 4 8 11 12 10 8 7 7 7 6 5 4 2 2 2 2 1 1 2 3 4 4 4 4 5 4 3 3 3 4 5 4 5 4 3 2 2 2 2 4 5 6 6 7 7 7 7 8 7 8 7 6 4 5 6 7 6 6 5 5 3 5 6 6 6 6 6 6 6 6 6 7 7 7 7 7 6
4 3 4 4 0 1 1 2 1 4 5 4 1 1 4 3 6 4 8 14 9 3 3 5 9 11 10 8 6 5 4 3 4 3 3 3 2 2 2 2 3 3 4 4 4 3 3 3 3 4 3 4 3 3 3 3 3 4 3 2 2 3 3 4 5 6 6 7 8 9 10 11 8 6 6 7 6 7 7 6 4 5 6 7 7 7 7 7 7 7 7 7 7 7 6 7 7
0 2 5 6 7 5 2 3 3 4 6 2 3 1 5 1 4 1 5 6 3 5 4 5 7 7 7 6 5 4 4 4 3 3 3 3 3 3 3 3 3 3 3 4 3 3 3 3 4 3 4 4 4 3 1 2 3 4 4 4 4 3 2 3 6 7 8 9 9 10 10 10 10 8 7 5 7 7 7 7 8 9 8 7 8 7 7 7 7 7 6 7 6 6 7 7 6
0 1 4 5 2 5 2 2 3 1 0 2 1 4 1 3 1 4 1 1 1 3 4 4 6 5 5 5 6 5 5 4 3 3 3 4 4 3 3 3 3 3 3 3 3 3 3 2 2 2 2 2 3 3 2 2 2 1 1 2 4 5 5 5 6 7 7 7 7 10 11 11 11 10 8 5 7 7 7 6 6 7 11 9 8 8 8 7 7 7 6 6 7 5 7 7 7
2 1 1 0 2 7 5 2 1 2 4 4 0 6 5 6 4 1 2 3 2 1 4 5 7 6 5 7 6 6 6 4 3 4 4 5 4 3 3 3 3 3 3 3 3 3 2 3 4 3 2 2 3 2 3 2 1 1 3 4 4 6 7 8 8 8 8 7 6 6 9 11 10 9 8 9 7 7 7 7 7 9 12 9 8 8 8 8 7 7 7 7 7 6 6 8 6
4 1 4 1 2 4 4 2 2 2 2 5 1 5 4 2 6 4 1 0 2 2 4 4 5 6 8 8 7 7 6 5 5 4 4 4 3 3 4 3 3 3 3 3 3 3 1 1 2 2 3 2 2 2 2 2 2 2 2 4 5 6 7 8 8 7 6 6 6 6 4 5 8 9 10 9 8 8 8 11 11 12 9 7 7 7 7 7 7 6 7 7 7 6 6 4 5
1 2 3 1 1 0 3 3 1 0 2 3 3 1 4 4 7 2 3 5 7 5 3 4 6 6 8 8 7 5 4 3 4 5 4 4 3 3 3 4 6 3 3 2 2 3 2 2 1 1 2 1 0 1 1 1 2 2 2 4 5 6 6 6 6 6 6 7 7 7 8 7 7 7 6 7 8 9 9 10 12 9 7 7 6 6 6 6 7 7 6 6 5 6 6 6 5
3 3 3 0 3 2 2 4 2 4 3 2 6 1 4 6 5 8 9 11 10 6 5 9 11 11 9 8 7 7 6 5 5 5 4 3 3 3 3 4 5 3 2 2 1 2 2 2 2 2 1 2 2 2 1 2 2 1 2 2 3 5 5 6 5 5 5 6 5 5 7 9 8 6 7 7 5 6 8 8 6 7 7 7 7 7 6 6 6 6 6 5 5 5 5 6 5
1 2 2 1 2 1 4 1 1 3 3 4 2 5 5 6 6 6 11 10 10 11 12 10 9 9 8 7 8 7 7 6 6 5 4 3 3 3 4 4 2 1 1 1 1 0 1 1 2 2 2 1 2 0 1 1 2 3 3 5 5 5 4 2 2 4 5 5 3 4 3 4 5 6 6 5 5 5 5 6 7 7 7 7 7 6 4 5 5 5 4 5 5 5 5 4 3
3 5 3 6 4 2 1 5 2 1 2 3 3 9 6 9 2 6 7 4 6 10 11 10 8 8 8 7 6 7 7 6 6 5 4 3 3 3 3 3 1 1 0 1 1 0 1 3 2 2 3 2 1 1 1 1 2 3 4 5 6 6 7 6 6 3 2 2 3 4 4 3 5 4 5 6 7 7 7 8 8 7 7 6 6 5 4 4 5 5 5 4 5 5 4 3 3
Wind_Direction
316 341 297 292 86 216 65 358 152 310 77 242 349 128 244 258 232 4 330 325 344 38 38 73 103 120 160 200 186 187 196 144 200 129 212 239 7 155 170 144 135 133 135 135 131 128 128 131 131 128 125 124 122 119 117 115 115 113 112 111 112 111 112 114 115 114 112 111 109 108 107 107 107 106 107 104 103 101 101 99 94 89 89 89 91 91 95 92 94 96 95 91 86 85 89 89 90
320 339 319 151 216 76 218 120 96 349 38 34 243 124 244 281 76 196 209 199 213 122 125 75 62 74 67 68 56 141 199 192 164 187 244 276 129 212 173 149 140 138 137 132 128 126 126 129 129 126 123 122 120 118 117 116 116 114 114 113 111 110 112 113 113 111 110 109 108 107 108 108 107 106 104 102 98 101 102 100 99 99 101 104 97 97 94 93 93 93 92 88 86 85 87 88 88
327 14 25 55 351 85 92 38 223 46 155 237 274 214 315 243 159 299 251 246 151 155 125 125 112 101 116 57 357 52 259 238 78 73 40 107 147 233 150 141 131 130 132 125 124 126 126 130 130 128 126 125 124 122 121 119 118 116 115 113 110 110 109 110 109 109 108 106 104 105 106 107 106 104 99 98 98 94 95 96 95 95 90 85 93 92 95 96 95 91 86 84 85 85 84 85 89
1 180 159 73 263 28 65 33 90 132 152 210 274 274 194 179 82 216 226 234 128 146 121 187 81 288 102 56 180 93 303 13 151 128 125 187 270 124 129 128 123 127 128 129 125 129 132 135 133 131 129 127 127 125 124 122 120 118 117 114 113 112 111 107 106 106 106 105 104 104 105 108 107 105 100 98 95 91 92 94 96 98 98 98 99 100 98 97 96 90 86 86 84 83 83 90 100
19 306 128 100 109 3 102 158 147 105 212 185 205 275 269 210 229 260 257 242 172 154 153 168 91 331 159 124 129 93 260 174 106 156 116 199 131 130 133 131 129 133 136 138 134 137 139 138 136 133 132 132 131 129 126 124 121 119 118 115 114 112 111 110 108 107 105 104 104 104 106 107 108 105 101 99 93 95 92 89 90 92 96 97 97 102 103 99 92 84 83 78 74 76 82 90 106
47 35 7 91 96 182 60 81 359 202 231 157 207 238 216 224 26 343 3 57 43 14 249 100 139 165 23 307 108 194 303 30 171 89 129 220 133 139 139 140 140 143 141 136 142 145 144 141 139 138 138 139 136 134 130 127 124 122 120 117 116 115 114 113 112 109 105 102 102 103 104 106 106 103 101 101 100 92 89 91 90 92 93 95 96 93 100 101 93 83 77 69 66 72 88 98 109
318 40 354 33 22 57 168 146 209 206 269 162 219 192 215 246 52 335 359 35 4 19 16 78 120 95 78 273 11 151 5 242 144 168 112 147 126 132 137 142 141 139 139 140 141 146 147 143 142 142 144 143 142 139 135 132 128 125 122 120 120 119 118 118 116 112 107 104 103 102 102 104 105 104 100 97 95 92 90 92 96 97 95 94 94 96 102 105 87 81 67 61 62 80 105 107 109
55 121 317 104 230 54 104 184 247 153 274 172 242 286 205 237 224 317 223 120 249 129 256 253 114 98 252 299 178 339 24 15 101 104 112 126 121 124 130 142 138 137 141 138 144 148 150 145 144 145 146 146 143 139 136 132 128 127 126 123 121 121 121 120 117 112 108 107 106 104 104 105 106 106 103 98 93 92 92 92 92 92 97 95 94 98 111 99 81 70 61 59 69 97 118 113 108
348 84 295 76 100 41 50 229 259 230 286 284 270 234 242 179 169 151 210 217 88 218 173 170 211 103 253 44 44 328 37 8 86 107 108 118 125 131 136 144 147 144 145 147 147 156 153 152 149 149 149 148 144 140 135 131 128 127 126 124 124 123 121 119 117 113 110 109 108 107 108 108 107 106 103 99 97 96 98 96 97 97 95 97 98 98 94 81 73 64 60 67 86 110 117 113 112
30 96 238 137 121 200 23 311 44 242 230 235 247 272 255 166 194 186 189 229 198 157 198 100 145 121 102 86 285 356 347 333 89 87 101 109 115 110 127 136 141 145 145 147 148 151 151 155 150 149 147 145 142 139 135 131 130 129 128 125 125 123 120 120 117 115 112 112 112 111 110 111 110 106 103 101 100 100 99 100 100 101 99 99 95 95 91 80 68 63 64 83 102 110 112 113 113
25 12 130 81 58 174 190 275 263 303 256 287 289 257 258 190 159 190 193 193 196 167 121 150 70 110 100 318 8 244 338 25 71 111 111 111 105 119 121 120 139 141 149 151 140 120 124 133 147 141 142 141 139 138 135 132 132 131 130 129 127 127 127 125 121 118 117 116 116 114 112 113 110 106 104 103 102 101 100 102 103 102 101 101 101 102 98 80 68 64 70 100 111 110 110 112 112
41 10 14 100 160 149 224 167 276 272 291 320 280 285 254 259 142 167 207 195 158 157 158 163 196 132 79 70 347 357 40 32 6 89 91 96 103 110 124 116 131 131 135 136 117 113 107 128 130 143 140 140 138 136 134 132 131 131 131 130 130 131 130 128 126 124 123 122 123 121 118 115 111 109 107 105 103 101 101 101 102 103 105 105 105 106 97 83 72 69 88 112 112 110 112 113 114
120 108 84 91 204 120 182 208 257 293 316 289 247 276 267 230 192 187 182 189 145 119 196 197 126 106 130 159 91 155 94 356 338 101 101 101 105 112 104 116 116 120 130 126 117 112 105 98 110 124 138 139 139 138 135 133 133 132 132 131 132 131 129 129 128 127 126 127 126 124 122 118 115 112 110 106 102 101 100 101 103 105 107 109 109 107 95 84 73 75 100 117 115 116 117 118 119
116 177 124 168 67 121 163 267 353 356 300 253 269 284 292 144 215 185 141 119 166 156 201 150 138 130 84 103 144 211 153 300 268 101 98 93 105 115 128 124 119 122 125 122 118 111 104 99 96 103 127 121 133 136 136 137 135 132 132 130 130 130 130 129 129 130 129 127 126 127 125 123 119 115 110 105 102 102 104 106 107 107 107 109 113 105 93 81 74 74 96 114 114 118 119 119 117
96 136 84 114 37 66 259 104 268 178 278 288 291 340 356 348 91 138 143 125 9 10 103 43 175 144 206 157 213 199 169 209 162 108 97 97 84 71 85 89 96 106 117 111 103 110 114 113 108 105 100 100 103 105 125 140 138 134 132 132 130 132 131 132 133 132 133 130 129 130 130 128 122 119 113 107 103 103 105 107 109 107 108 114 112 100 88 79 73 71 87 101 112 116 117 114 111
142 83 79 93 326 153 252 224 267 102 263 310 305 312 57 35 46 62 317 239 127 346 66 169 19 226 168 159 199 156 154 167 131 105 102 100 94 80 77 94 112 119 123 115 117 108 103 96 93 95 95 86 81 85 102 115 139 135 134 134 134 135 136 136 136 137 137 134 133 132 125 123 119 116 112 107 107 103 105 109 109 108 110 115 107 94 86 80 74 73 82 94 101 104 105 107 109
62 83 58 33 140 155 236 188 111 330 276 292 319 13 71 61 19 95 12 49 123 65 61 24 314 331 150 171 133 132 142 139 116 113 111 104 115 103 94 102 125 137 126 121 113 107 103 103 96 92 90 83 75 68 71 91 132 138 137 138 138 139 141 141 140 142 140 140 134 129 121 108 95 91 93 92 98 103 103 107 109 110 112 112 102 92 88 84 80 75 73 72 78 95 103 106 109
58 78 112 61 206 102 214 196 191 229 260 307 347 334 84 60 359 4 41 43 62 67 54 13 43 41 60 78 95 120 142 146 148 136 138 138 135 129 136 125 121 144 133 132 118 114 111 107 100 89 88 90 71 70 80 88 107 118 98 121 133 139 143 143 139 140 142 139 135 121 117 117 105 102 98 100 84 92 99 104 107 109 111 109 100 94 90 88 85 85 79 74 77 79 83 83 98
96 112 84 185 199 239 164 217 247 17 292 273 286 327 76 34 121 341 82 16 42 65 50 62 69 65 83 93 113 132 149 156 162 159 154 155 152 151 144 100 91 103 138 122 122 115 108 107 104 100 96 104 93 83 89 70 73 70 70 93 120 134 134 116 126 131 94 111 110 114 109 113 112 101 101 106 104 105 100 102 106 110 111 108 101 96 93 90 87 88 84 78 77 82 77 78 74
201 112 102 230 218 248 236 229 259 197 242 302 2 351 57 322 91 279 108 107 68 125 134 111 123 137 131 131 135 143 158 169 178 171 164 158 140 110 111 78 60 63 99 89 127 107 113 114 108 106 107 100 89 97 80 68 72 63 51 43 70 81 89 110 108 111 113 104 105 104 107 105 103 108 118 102 85 53 80 95 103 109 109 104 89 79 84 86 82 80 87 79 72 76 86 74 64
260 76 154 223 213 169 274 244 242 260 179 167 355 8 44 359 354 93 141 88 355 252 233 176 163 163 156 146 149 156 164 173 186 183 125 67 62 62 62 61 60 51 68 56 99 120 115 120 114 107 107 101 95 84 87 76 80 74 48 59 59 46 88 80 91 102 111 107 106 108 112 103 91 82 73 64 62 70 65 61 65 72 74 76 84 86 81 74 70 72 77 76 72 81 92 92 83
109 192 200 188 107 206 263 269 259 218 132 108 26 79 110 289 51 63 49 129 194 202 217 271 152 154 149 153 160 161 166 176 171 56 50 69 67 66 63 63 65 51 54 61 52 108 122 121 124 126 127 104 95 92 89 100 84 72 59 62 69 43 66 78 90 106 110 110 105 106 100 103 93 84 74 72 55 61 67 74 79 90 88 82 79 92 81 75 69 71 81 87 82 84 97 104 105
207 311 226 234 198 200 272 311 272 156 299 116 76 260 74 79 83 23 78 2 294 326 80 93 125 140 140 140 146 158 159 108 58 56 63 59 66 64 73 71 79 70 65 70 64 63 66 74 99 123 124 107 94 98 102 110 104 87 85 102 102 81 45 66 101 122 120 127 125 120 118 113 110 107 103 100 85 43 54 63 81 90 108 100 81 96 82 71 70 65 70 85 92 85 99 111 115
117 234 122 249 212 223 241 253 293 292 103 117 146 53 93 114 84 216 56 313 285 75 82 102 107 111 124 127 100 68 64 73 65 68 74 81 86 75 78 85 89 88 72 73 82 62 62 74 92 107 112 104 101 107 98 97 96 111 119 124 103 135 107 110 151 142 132 133 136 129 129 132 130 121 119 121 111 49 47 52 55 79 83 106 115 98 94 67 62 60 60 69 85 87 103 126 127
167 252 219 249 150 240 257 258 300 224 241 221 106 88 342 41 138 84 359 340 67 82 95 105 110 111 109 106 89 78 61 52 62 72 79 89 99 91 81 90 90 88 81 79 90 91 106 109 93 111 108 115 120 118 110 110 118 119 109 83 68 123 113 130 206 142 134 134 139 139 142 138 129 129 130 135 128 131 44 34 45 64 70 81 85 64 80 78 65 58 52 53 84 86 91 127 137
194 223 207 23 231 280 275 228 282 234 238 195 89 67 339 46 34 55 307 11 74 90 95 99 99 96 75 62 57 75 71 71 91 76 87 92 106 97 102 104 108 97 115 110 97 107 114 119 112 119 122 138 139 125 130 130 131 130 127 130 145 120 106 94 107 160 130 133 147 156 156 149 147 141 139 140 143 147 165 161 52 71 95 67 69 78 71 82 63 29 24 26 22 79 94 143 142
176 225 203 222 278 292 357 186 242 244 288 321 137 81 21 338 73 302 35 360 97 91 94 99 97 82 81 82 77 78 91 71 71 117 81 70 67 106 127 127 120 133 129 123 132 139 144 129 132 138 136 149 145 135 140 141 148 150 151 140 140 131 128 112 101 152 134 169 161 163 164 153 140 141 142 148 150 153 161 172 215 235 218 140 93 101 71 95 90 48 336 336 358 69 119 157 153
195 169 120 44 327 315 2 344 274 10 260 80 122 95 28 346 53 163 149 90 97 101 98 92 81 83 92 95 84 87 89 95 81 84 81 73 89 111 138 141 141 148 143 151 154 156 154 149 152 152 147 152 148 145 146 152 162 163 153 149 150 144 141 146 145 163 184 203 186 167 173 161 148 149 148 152 157 163 168 177 193 207 218 165 137 140 139 144 150 196 212 216 220 166 143 168 164
170 146 118 308 4 208 331 211 268 262 240 157 161 94 24 352 117 355 127 117 103 96 96 95 96 99 98 99 103 82 90 131 133 84 90 101 110 130 138 175 152 150 165 156 162 159 161 160 157 159 151 149 149 153 153 151 149 162 167 172 163 150 149 153 166 175 188 182 189 182 180 172 160 155 162 161 162 166 169 177 195 208 211 171 168 176 178 164 196 237 239 235 242 174 153 148 158
117 42 136 28 11 332 278 321 284 177 263 68 5 194 298 296 307 121 138 122 107 96 96 101 104 104 107 108 94 84 69 82 65 76 101 112 126 135 150 201 171 157 165 162 160 166 162 160 143 136 140 143 142 141 137 141 151 169 184 178 155 137 150 165 178 177 177 184 181 187 189 190 165 162 159 165 158 161 174 189 199 206 198 172 179 173 189 183 209 221 246 201 241 201 186 166 153
131 295 59 87 72 247 290 147 312 169 351 52 76 187 259 276 334 171 164 141 119 113 117 124 119 105 93 78 77 73 64 61 58 63 83 108 122 130 144 175 181 171 154 152 163 163 141 123 127 129 141 144 144 143 142 153 166 173 169 170 172 172 167 190 189 179 176 184 177 185 197 202 182 169 166 163 167 167 174 193 208 211 179 175 180 191 182 194 197 215 206 231 233 223 175 177 172
31 68 309 330 121 280 294 287 197 178 337 47 91 57 199 251 259 180 218 200 125 125 137 133 119 105 95 81 73 70 60 49 58 52 49 71 107 126 147 162 183 172 167 168 161 148 148 147 150 145 156 157 161 151 157 168 168 159 168 164 167 176 178 190 191 186 181 179 178 183 195 205 191 181 170 166 169 173 180 196 211 200 183 174 193 183 174 191 196 198 223 194 241 209 164 186 166
355 97 224 282 181 255 345 280 279 237 131 354 146 185 148 293 255 244 322 151 149 130 135 127 112 102 87 80 74 68 75 68 60 67 61 48 79 125 150 170 187 188 181 156 146 139 150 162 158 161 170 168 155 151 163 174 152 156 172 177 179 179 174 187 197 184 174 177 179 187 191 198 199 187 178 175 175 178 184 199 208 198 178 174 183 178 191 190 193 205 195 175 163 175 176 180 184
328 4 110 214 212 293 267 306 278 317 135 159 40 124 219 209 159 223 103 164 137 134 133 122 111 106 97 79 71 73 77 69 65 62 57 56 65 114 153 185 198 197 173 133 134 158 169 170 172 178 175 163 157 162 168 162 148 153 174 193 173 169 172 185 195 178 186 178 177 195 190 193 194 193 185 181 186 185 186 193 201 195 180 167 174 178 207 198 198 201 152 169 151 145 183 190 192
248 355 21 326 328 213 235 134 243 80 345 129 54 77 112 131 144 89 78 22 115 149 145 138 132 115 96 93 100 98 99 101 63 37 46 47 37 19 42 61 151 167 126 110 114 75 67 101 157 201 173 164 169 170 159 154 160 157 132 229 200 196 215 175 168 185 195 182 183 192 188 192 194 191 190 184 186 191 187 189 193 198 181 170 168 190 201 213 223 229 173 198 130 169 182 207 199
196 163 183 194 271 284 213 233 268 144 118 90 131 144 138 150 96 63 59 35 55 17 55 113 112 111 110 113 108 105 103 81 44 31 34 39 26 19 20 54 65 63 51 43 35 28 40 38 26 358 22 229 171 169 161 164 169 178 172 183 207 204 195 203 201 188 190 186 189 185 188 190 195 191 192 187 189 190 191 188 192 186 187 170 174 182 209 203 210 228 203 191 208 228 186 221 191
110 112 145 218 208 282 272 261 271 207 96 20 122 126 137 123 87 66 59 48 49 30 12 147 143 129 133 124 124 122 117 110 15 32 22 16 10 1 7 25 51 80 75 83 77 42 346 144 196 241 230 239 208 182 184 172 182 190 218 209 206 193 189 208 230 247 188 190 184 186 188 190 191 192 193 187 190 193 193 190 187 186 182 182 188 203 203 206 201 202 184 178 196 254 280 178 160
147 117 139 293 199 20 7 321 336 293 109 35 90 95 81 58 61 43 55 72 81 28 329 298 116 116 138 138 137 137 133 50 33 40 19 24 14 2 8 28 43 65 55 53 52 39 345 287 233 218 177 207 216 222 215 215 234 219 196 206 200 192 191 194 213 240 234 204 190 187 192 190 188 191 193 192 191 188 191 193 192 190 177 191 204 212 204 209 196 180 151 112 81 188 231 188 173
46 124 160 61 291 240 289 1 7 355 86 53 126 111 73 47 45 43 66 76 330 349 29 317 333 190 147 148 147 149 136 118 43 22 18 39 23 7 22 27 42 58 85 59 163 188 205 229 244 244 218 204 212 218 217 236 260 289 335 222 198 239 240 209 191 181 188 199 213 200 193 191 188 193 193 192 191 191 194 191 200 188 183 188 198 210 205 200 192 191 181 161 157 251 184 209 176
70 42 52 51 271 61 335 342 354 7 112 148 133 102 62 358 28 47 27 89 201 358 58 17 49 303 205 171 174 155 145 126 74 16 358 350 21 15 23 29 21 333 71 51 111 170 204 207 207 201 205 207 211 211 221 221 253 244 237 221 193 184 205 190 173 112 115 124 192 214 205 196 194 195 193 194 197 192 190 196 197 189 189 186 192 202 198 202 185 201 192 205 148 102 20 21 142
340 94 128 28 342 14 141 85 67 70 46 110 92 59 39 3 37 2 331 356 87 357 16 31 20 66 24 320 56 16 134 125 119 47 25 14 19 6 336 337 335 349 334 345 353 167 201 197 198 202 190 199 200 217 219 208 210 219 224 208 107 113 120 146 169 205 184 191 185 257 215 190 195 199 195 198 197 193 191 191 193 194 185 189 191 197 192 198 194 194 190 174 171 158 156 109 3
325 287 160 265 220 109 87 205 81 20 64 306 120 82 280 291 290 238 284 348 156 17 178 250 264 130 76 182 256 18 14 306 211 165 135 22 355 341 345 334 350 336 322 301 301 302 304 282 230 189 195 187 188 197 202 197 214 216 203 210 211 208 224 194 201 201 197 190 208 214 215 196 184 189 190 199 205 191 189 191 191 184 189 189 190 192 195 188 190 187 195 181 170 180 150 140 200
74 317 210 263 120 120 129 121 84 92 141 221 37 138 229 332 260 236 264 328 273 313 254 245 242 222 189 224 201 178 198 261 293 289 344 33 346 341 320 325 305 310 304 306 317 315 303 280 265 256 204 194 202 189 186 195 204 208 219 217 215 218 225 235 231 240 211 211 201 198 202 201 184 173 169 172 200 210 189 187 185 188 186 188 186 181 181 192 197 199 168 171 181 160 132 170 194
57 267 101 98 83 58 14 97 103 171 304 42 46 108 137 219 251 214 197 226 273 278 262 249 234 211 208 215 219 215 221 237 232 227 223 251 260 228 288 297 300 296 298 319 333 333 319 307 306 273 242 232 206 196 188 188 199 207 218 225 223 225 225 225 179 204 307 266 208 214 191 201 186 167 151 147 142 186 214 184 182 180 182 186 181 187 191 191 168 155 162 166 158 162 167 185 217
212 266 171 37 123 135 95 59 64 26 99 214 336 22 69 239 266 320 147 209 245 242 233 232 227 212 202 201 218 222 222 230 233 208 171 188 325 304 279 301 304 314 331 332 328 319 307 309 316 289 244 219 217 217 211 202 206 203 212 216 225 226 222 223 178 171 173 199 218 225 207 200 186 185 180 160 157 154 174 202 176 171 174 182 187 186 191 173 172 160 152 157 171 175 179 191 174
263 148 84 76 67 64 85 106 63 348 88 238 269 77 179 283 290 212 355 203 231 228 224 221 208 202 191 193 214 213 221 236 241 236 232 283 265 260 266 266 316 324 311 314 323 327 335 336 352 344 307 261 202 212 238 234 223 219 213 213 224 226 218 214 179 179 180 174 194 233 239 205 202 201 196 188 160 158 159 170 202 177 177 178 182 186 177 169 164 173 183 182 175 173 195 185 200
123 78 62 10 37 25 27 66 107 67 303 245 226 125 146 272 229 191 170 211 206 212 215 216 213 210 197 196 196 195 201 220 233 260 294 275 264 265 311 355 326 328 334 351 351 343 329 345 356 355 320 302 249 197 218 238 231 228 225 210 217 223 217 207 198 187 172 150 194 219 205 223 214 211 192 202 198 172 153 162 197 199 175 177 177 177 180 178 181 179 186 182 175 181 191 203 215
143 76 125 37 339 4 32 344 36 129 253 260 262 142 137 214 290 243 228 322 220 193 199 198 195 195 188 190 202 205 208 216 240 296 296 313 332 343 8 3 345 328 352 356 342 335 338 342 352 348 335 345 334 306 199 225 238 226 220 217 214 217 217 210 206 204 193 194 198 209 210 235 240 223 203 204 200 191 145 146 182 198 185 179 185 182 178 180 181 185 182 183 190 196 193 192 206
77 86 44 117 255 39 245 8 233 213 196 257 25 134 26 243 215 214 222 229 239 206 205 195 180 182 184 192 198 203 210 219 233 249 266 283 298 311 330 326 342 353 341 335 332 318 326 345 348 353 347 356 335 326 356 334 317 333 271 219 216 209 213 218 214 210 202 201 198 205 212 230 218 226 214 211 200 169 160 128 150 213 197 193 182 176 184 181 183 188 190 192 192 189 194 196 195
86 142 141 100 100 55 239 278 268 310 287 256 356 299 254 255 292 231 220 224 213 212 194 156 173 179 185 187 196 203 216 212 219 233 247 267 284 290 276 285 307 321 334 336 330 332 355 344 359 23 340 341 343 358 336 339 337 314 292 254 189 182 217 219 223 225 212 204 198 206 206 213 217 205 228 212 190 173 166 162 144 258 234 189 184 185 184 190 189 193 195 194 196 203 192 195 203
153 157 132 179 145 156 207 197 196 211 203 281 290 60 234 99 239 241 244 273 226 181 193 171 174 180 178 180 185 203 222 234 229 234 242 246 264 262 281 304 308 314 317 337 330 337 350 359 27 28 6 346 335 317 280 344 319 317 286 231 199 197 185 214 213 213 215 209 203 206 212 216 217 204 210 207 177 186 175 167 180 213 237 200 189 188 191 193 197 199 200 199 198 195 197 194 203
119 165 82 88 232 136 164 208 149 208 202 343 249 213 188 195 260 276 287 355 47 156 176 152 163 165 162 171 189 204 215 228 232 246 263 261 249 270 297 300 300 303 319 331 329 341 352 337 48 52 17 1 6 1 338 313 282 254 302 253 227 230 231 224 226 219 216 209 207 204 206 207 216 216 199 215 192 183 176 173 179 196 232 217 193 191 191 191 193 196 203 195 201 191 192 194 203
260 105 180 221 157 100 95 78 31 114 47 249 174 320 304 301 331 349 19 47 12 113 175 184 168 169 167 185 194 205 213 223 243 239 242 253 273 280 262 272 288 310 327 327 314 329 335 344 17 9 11 5 20 19 5 349 318 286 262 248 236 228 231 229 229 228 227 223 210 209 208 197 203 207 196 207 194 181 177 171 188 204 216 202 193 196 194 194 189 194 195 192 200 195 190 199 193
79 63 230 165 133 128 120 212 346 56 187 260 71 226 288 37 275 333 4 18 278 247 191 198 170 162 181 195 196 202 207 217 231 249 254 253 261 282 299 293 273 267 281 298 322 320 349 22 1 358 20 14 1 18 16 355 38 30 284 253 244 236 235 234 232 232 224 221 216 204 183 191 196 195 192 194 190 182 179 180 194 208 203 181 183 184 189 189 182 191 193 196 201 181 189 191 193
187 198 194 103 288 316 330 86 318 255 269 276 308 276 268 188 250 355 261 225 228 224 207 176 187 189 195 197 204 209 223 245 253 251 260 273 283 293 289 279 288 276 267 270 309 318 355 25 13 26 38 342 316 351 360 337 330 329 316 311 298 271 249 245 231 225 212 210 210 200 202 196 196 184 191 197 197 189 186 180 188 187 176 180 184 184 174 169 173 179 186 193 180 172 180 194 198
32 67 44 352 103 159 131 194 176 118 256 52 287 23 243 211 224 198 221 215 212 186 188 207 197 195 194 193 193 198 207 215 228 240 249 264 281 274 274 275 278 304 315 294 331 327 5 348 15 357 10 60 45 17 347 360 332 328 353 334 335 312 277 256 246 226 217 219 203 200 207 199 202 186 183 186 213 205 186 174 173 171 171 171 182 192 184 169 165 175 175 172 170 172 185 201 193
4 39 338 11 34 213 103 40 114 185 181 183 221 311 275 259 217 191 225 217 202 186 197 202 201 199 196 191 189 194 200 206 218 225 238 260 280 293 299 280 271 295 265 264 101 346 311 329 22 348 349 44 81 347 325 315 336 348 14 22 1 8 342 272 264 237 226 220 197 179 208 197 166 181 175 179 179 202 224 174 160 164 169 170 172 171 166 158 163 156 160 166 162 175 193 198 152
164 159 198 169 124 135 189 258 36 91 132 236 139 256 260 270 187 224 249 252 208 209 197 198 201 197 196 198 201 192 195 211 210 221 228 255 281 294 306 324 52 56 9 113 47 17 339 8 338 347 330 349 125 211 268 302 3 8 21 31 29 39 39 27 8 331 247 204 189 183 172 181 181 180 164 174 180 187 198 180 160 155 160 164 159 149 143 150 163 168 164 161 160 167 170 137 133